Location: Gipe Farm
(40.9466°N, 95.5370°W)
Time: 03:04:00
(UTC-05:00)

Cosmos 1842 - Visible Passes

Search period start: 21 September 2014 00:00
Search period end: 01 October 2014 00:00
Orbit: 536 x 555 km, 82.5° (Epoch: 18 September)

Date Brightness Start Highest point End Pass type
(mag) Time Alt. Az. Time Alt. Az. Time Alt. Az.
21 Sep 7.4 20:07:26 10° WNW 20:08:16 11° W 20:09:07 10° W visible
24 Sep 6.0 06:37:10 10° SSE 06:40:27 26° E 06:43:44 10° NNE visible
25 Sep 5.8 06:31:29 10° SSE 06:34:50 27° E 06:38:11 10° NNE visible
26 Sep 5.6 06:25:48 10° SSE 06:29:12 29° E 06:32:38 10° NNE visible
27 Sep 5.5 06:20:07 10° SSE 06:23:35 31° E 06:27:04 10° NNE visible
28 Sep 5.3 06:14:26 10° SSE 06:17:57 32° E 06:21:30 10° NNE visible
29 Sep 5.1 06:08:45 10° SSE 06:12:19 34° E 06:15:55 10° NNE visible
30 Sep 5.0 06:03:04 10° SSE 06:06:41 37° E 06:10:20 10° NNE visible
